Change the Weather History Date:

Sunday, March 25, 2012

  Actual Average Record
Temperature  
Mean Temperature 37 °F -  
Max Temperature 46 °F 35 °F 51 °F (2007)
Min Temperature 28 °F 17 °F -9 °F (2002)
Degree Days  
Heating Degree Days 28    
Moisture  
Dew Point 20 °F    
Average Humidity 56    
Maximum Humidity 80    
Minimum Humidity 23    
Precipitation  
Precipitation 0.00 in - - ()
Sea Level Pressure  
Sea Level Pressure 30.15 in    
Wind  
Wind Speed 7 mph (NNW)    
Max Wind Speed 13 mph    
Max Gust Speed 21 mph    
Visibility 10 miles    
Events      
Averages and records for this station are not official NWS values.
T = Trace of Precipitation, MM = Missing Value Source: NWS Daily Summary

Daily Weather History Graph

Daily Weather History Graph

Search for Another Location

Airport or City:

Trip Planner

Search our weather history database for the weather conditions in past years. The results will help you decide how hot, cold, wet, or windy it might be!

Date:

Astronomy

Mar. 25, 2012 Rise Set
Actual Time 6:57 AM CDT 7:26 PM CDT
Civil Twilight 6:26 AM CDT 7:56 PM CDT
Nautical Twilight 5:50 AM CDT 8:33 PM CDT
Astronomical Twilight 5:13 AM CDT 9:11 PM CDT
Moon 7:55 AM CDT (3/25) 10:59 PM CDT (3/25)
Length of Visible Light 13h 29m
Length of Day
12h 28m
Waxing Crescent, 9% of the Moon is Illuminated
Mar 25
Waxing Crescent
Mar 30
First Quarter
Apr 6
Full
Apr 13
Last Quarter
Apr 21
New

Hourly Weather History & Observations

Time (CDT) Temp. Windchill Dew Point Humidity Pressure Visibility Wind Dir Wind Speed Gust Speed Precip Events Conditions
12:14 AM 37.4 °F 31.4 °F 30.2 °F 75% 30.03 in 10.0 mi NNW 8.1 mph 20.7 mph N/A   Clear
12:34 AM 37.4 °F 29.3 °F 28.4 °F 70% 30.04 in 10.0 mi NW 12.7 mph 18.4 mph N/A   Clear
12:54 AM 35.6 °F 28.6 °F 28.4 °F 75% 30.05 in 10.0 mi NNW 9.2 mph 20.7 mph N/A   Clear
1:14 AM 35.6 °F 32.8 °F 26.6 °F 70% 30.04 in 10.0 mi NNW 3.5 mph - N/A   Clear
1:34 AM 33.8 °F 29.6 °F 26.6 °F 75% 30.05 in 10.0 mi NNW 4.6 mph - N/A   Clear
1:54 AM 33.8 °F 27.7 °F 26.6 °F 75% 30.06 in 10.0 mi NNW 6.9 mph 16.1 mph N/A   Clear
2:14 AM 33.8 °F 27.7 °F 26.6 °F 75% 30.06 in 10.0 mi NNW 6.9 mph 17.3 mph N/A   Clear
2:34 AM 33.8 °F 27.0 °F 26.6 °F 75% 30.05 in 10.0 mi NW 8.1 mph - N/A   Clear
2:54 AM 33.8 °F 28.6 °F 26.6 °F 75% 30.06 in 10.0 mi NNW 5.8 mph 19.6 mph N/A   Clear
3:14 AM 33.8 °F 26.4 °F 24.8 °F 70% 30.06 in 10.0 mi NNW 9.2 mph 18.4 mph N/A   Clear
3:34 AM 32.0 °F 25.6 °F 24.8 °F 75% 30.06 in 10.0 mi NNW 6.9 mph - N/A   Clear
3:54 AM 32.0 °F 28.7 °F 24.8 °F 75% 30.07 in 10.0 mi NNW 3.5 mph - N/A   Clear
4:14 AM 30.2 °F 26.7 °F 24.8 °F 80% 30.07 in 10.0 mi NNW 3.5 mph - N/A   Clear
4:34 AM 30.2 °F 25.4 °F 24.8 °F 80% 30.07 in 10.0 mi NNW 4.6 mph - N/A   Clear
4:54 AM 30.2 °F 22.6 °F 23.0 °F 75% 30.08 in 10.0 mi NNW 8.1 mph - N/A   Clear
5:14 AM 30.2 °F 23.4 °F 23.0 °F 75% 30.09 in 10.0 mi NW 6.9 mph - N/A   Clear
5:34 AM 30.2 °F 24.3 °F 23.0 °F 75% 30.09 in 10.0 mi NW 5.8 mph - N/A   Scattered Clouds
5:54 AM 28.4 °F - 21.2 °F 74% 30.10 in 10.0 mi Calm Calm - N/A   Scattered Clouds
6:14 AM 28.4 °F 22.2 °F 21.2 °F 74% 30.10 in 10.0 mi NW 5.8 mph - N/A   Scattered Clouds
6:34 AM 28.4 °F 23.3 °F 21.2 °F 74% 30.11 in 10.0 mi NW 4.6 mph - N/A   Scattered Clouds
6:54 AM 28.4 °F 20.4 °F 21.2 °F 74% 30.12 in 10.0 mi NW 8.1 mph - N/A   Scattered Clouds
7:14 AM 28.4 °F 19.1 °F 21.2 °F 74% 30.12 in 10.0 mi NNW 10.4 mph 20.7 mph N/A   Scattered Clouds
7:34 AM 30.2 °F 20.8 °F 21.2 °F 69% 30.13 in 10.0 mi NW 11.5 mph 18.4 mph N/A   Clear
7:54 AM 30.2 °F 24.3 °F 21.2 °F 69% 30.13 in 10.0 mi NNW 5.8 mph - N/A   Clear
8:14 AM 30.2 °F 24.3 °F 21.2 °F 69% 30.14 in 10.0 mi NNW 5.8 mph - N/A   Scattered Clouds
8:34 AM 30.2 °F 23.4 °F 21.2 °F 69% 30.15 in 10.0 mi NW 6.9 mph - N/A   Clear
8:54 AM 32.0 °F 27.5 °F 21.2 °F 64% 30.15 in 10.0 mi West 4.6 mph - N/A   Scattered Clouds
9:14 AM 33.8 °F 27.0 °F 19.4 °F 56% 30.16 in 10.0 mi NW 8.1 mph 18.4 mph N/A   Scattered Clouds
9:34 AM 33.8 °F 29.6 °F 19.4 °F 56% 30.17 in 10.0 mi NW 4.6 mph 16.1 mph N/A   Clear
9:54 AM 35.6 °F 28.6 °F 19.4 °F 52% 30.16 in 10.0 mi WNW 9.2 mph - N/A   Clear
10:14 AM 37.4 °F 31.4 °F 21.2 °F 52% 30.16 in 10.0 mi WNW 8.1 mph - N/A   Clear
10:34 AM 37.4 °F 33.8 °F 21.2 °F 52% 30.17 in 10.0 mi NW 4.6 mph - N/A   Clear
11:14 AM 39.2 °F 34.2 °F 17.6 °F 42% 30.18 in 10.0 mi NNW 6.9 mph - N/A   Clear
11:34 AM 39.2 °F 34.2 °F 17.6 °F 42% 30.18 in 10.0 mi North 6.9 mph - N/A   Clear
11:54 AM 41.0 °F 37.1 °F 17.6 °F 39% 30.18 in 10.0 mi NNW 5.8 mph - N/A   Clear
12:14 PM 42.8 °F 40.1 °F 17.6 °F 36% 30.18 in 10.0 mi NW 4.6 mph - N/A   Clear
12:34 PM 42.8 °F 38.6 °F 17.6 °F 36% 30.18 in 10.0 mi NW 6.9 mph - N/A   Clear
12:54 PM 42.8 °F 39.3 °F 15.8 °F 34% 30.19 in 10.0 mi NNW 5.8 mph 16.1 mph N/A   Clear
1:14 PM 42.8 °F 37.0 °F 15.8 °F 34% 30.19 in 10.0 mi NNW 10.4 mph - N/A   Clear
1:34 PM 44.6 °F 39.2 °F 12.2 °F 27% 30.19 in 10.0 mi North 10.4 mph - N/A   Clear
1:54 PM 44.6 °F 40.2 °F 12.2 °F 27% 30.19 in 10.0 mi North 8.1 mph - N/A   Clear
2:14 PM 44.6 °F 42.2 °F 12.2 °F 27% 30.19 in 10.0 mi North 4.6 mph 9.2 mph N/A   Clear
2:34 PM 46.4 °F 45.2 °F 14.0 °F 27% 30.19 in 10.0 mi NNW 3.5 mph - N/A   Clear
2:54 PM 46.4 °F 43.5 °F 12.2 °F 25% 30.19 in 10.0 mi NNE 5.8 mph - N/A   Clear
3:14 PM 46.4 °F 44.3 °F 10.4 °F 23% 30.19 in 10.0 mi North 4.6 mph - N/A   Clear
3:34 PM 46.4 °F 41.5 °F 10.4 °F 23% 30.20 in 10.0 mi North 10.4 mph - N/A   Clear
3:54 PM 46.4 °F 41.9 °F 10.4 °F 23% 30.20 in 10.0 mi NNW 9.2 mph - N/A   Clear
4:14 PM 46.4 °F 45.2 °F 10.4 °F 23% 30.20 in 10.0 mi North 3.5 mph - N/A   Clear
4:34 PM 44.6 °F 42.2 °F 21.2 °F 39% 30.21 in 10.0 mi SSE 4.6 mph - N/A   Clear
4:54 PM 41.0 °F 36.4 °F 21.2 °F 45% 30.22 in 10.0 mi SSE 6.9 mph - N/A   Clear
5:14 PM 39.2 °F 35.0 °F 21.2 °F 49% 30.23 in 10.0 mi ESE 5.8 mph - N/A   Clear
5:34 PM 39.2 °F 37.0 °F 19.4 °F 45% 30.24 in 10.0 mi SE 3.5 mph - N/A   Clear
5:54 PM 39.2 °F 35.0 °F 19.4 °F 45% 30.24 in 10.0 mi ESE 5.8 mph - N/A   Clear
6:14 PM 37.4 °F 30.8 °F 19.4 °F 48% 30.25 in 10.0 mi ESE 9.2 mph - N/A   Clear
6:34 PM 35.6 °F 29.9 °F 21.2 °F 56% 30.26 in 10.0 mi ESE 6.9 mph - N/A   Clear
6:54 PM 33.8 °F 27.7 °F 19.4 °F 56% 30.27 in 10.0 mi East 6.9 mph - N/A   Clear
7:14 PM 32.0 °F 26.4 °F 19.4 °F 60% 30.28 in 10.0 mi East 5.8 mph - N/A   Clear
7:34 PM 30.2 °F 26.7 °F 21.2 °F 69% 30.28 in 10.0 mi NE 3.5 mph - N/A   Clear
7:54 PM 30.2 °F 26.7 °F 21.2 °F 69% 30.29 in 10.0 mi NE 3.5 mph - N/A   Clear
8:14 PM 30.2 °F 26.7 °F 21.2 °F 69% 30.30 in 10.0 mi NE 3.5 mph - N/A   Clear
8:34 PM 28.4 °F - 21.2 °F 74% 30.30 in 10.0 mi Calm Calm - N/A   Clear
8:54 PM 28.4 °F 24.6 °F 21.2 °F 74% 30.31 in 10.0 mi NNE 3.5 mph - N/A   Clear
9:34 PM 26.6 °F - 19.4 °F 74% 30.32 in 10.0 mi Calm Calm - N/A   Clear
9:54 PM 28.4 °F 23.3 °F 17.6 °F 64% 30.32 in 10.0 mi NNE 4.6 mph - N/A   Clear
10:14 PM 28.4 °F 20.4 °F 15.8 °F 59% 30.33 in 10.0 mi NE 8.1 mph - N/A   Clear
10:34 PM 28.4 °F 22.2 °F 15.8 °F 59% 30.33 in 10.0 mi NE 5.8 mph - N/A   Clear
10:54 PM 28.4 °F 22.2 °F 15.8 °F 59% 30.33 in 10.0 mi NE 5.8 mph - N/A   Clear
11:14 PM 28.4 °F 22.2 °F 15.8 °F 59% 30.34 in 10.0 mi NE 5.8 mph - N/A   Clear
11:34 PM 28.4 °F 21.2 °F 14.0 °F 55% 30.34 in 10.0 mi NE 6.9 mph - N/A   Clear
11:54 PM 26.6 °F 20.0 °F 12.2 °F 55% 30.35 in 10.0 mi ENE 5.8 mph - N/A   Clear